This is the latest recevied weather packets stored in our database for station/object K3HW. If no packets are shown the sender has not sent any weather packets the latest 10 day(s).
| Time | Temp. | Humidity | Pressure | Rain* | Wind** | Luminosity | Snow |
|---|---|---|---|---|---|---|---|
| 1777732638 | 11.11° C | 59% | 1016.8 hPa | 0 mm | - | 143 W/m² | - |
| 1777732336 | 11.67° C | 58% | 1016.8 hPa | 0 mm | - | 141 W/m² | - |
| 1777732033 | 11.11° C | 60% | 1016.5 hPa | 0 mm | - | 142 W/m² | - |
| 1777731729 | 10.56° C | 59% | 1016.7 hPa | 0 mm | - | 153 W/m² | - |
| 1777731427 | 10.56° C | 59% | 1016.8 hPa | 0 mm | - | 149 W/m² | - |
| 1777731125 | 10.56° C | 60% | 1016.9 hPa | 0 mm | - | 143 W/m² | - |
| 1777730519 | 10.56° C | 61% | 1016.7 hPa | 0 mm | - | 172 W/m² | - |
| 1777730215 | 10° C | 62% | 1017 hPa | 0 mm | - | 129 W/m² | - |
| 1777729912 | 10° C | 62% | 1016.9 hPa | 0 mm | - | 118 W/m² | - |
| 1777729608 | 10° C | 63% | 1016.9 hPa | 0 mm | - | 112 W/m² | - |
| 1777729305 | 10° C | 62% | 1017.1 hPa | 0 mm | - | 115 W/m² | - |
| 1777729002 | 10° C | 62% | 1016.9 hPa | 0 mm | - | 114 W/m² | - |
| 1777728699 | 10° C | 64% | 1016.8 hPa | 0 mm | - | 115 W/m² | - |
| 1777728395 | 10° C | 63% | 1016.9 hPa | 0 mm | - | 123 W/m² | - |
| 1777728093 | 10° C | 63% | 1016.8 hPa | 0 mm | - | 125 W/m² | - |
| 1777727790 | 10° C | 63% | 1016.9 hPa | 0 mm | - | 107 W/m² | - |
| 1777727487 | 10° C | 63% | 1016.9 hPa | 0 mm | - | 93 W/m² | - |
| 1777727184 | 9.44° C | 65% | 1017.1 hPa | 0 mm | - | 84 W/m² | - |
| 1777726882 | 9.44° C | 65% | 1017 hPa | 0 mm | - | 74 W/m² | - |
| 1777726578 | 9.44° C | 69% | 1016.8 hPa | 0 mm | - | 57 W/m² | - |
| 1777726276 | 10° C | 70% | 1016.7 hPa | 0 mm | - | 82 W/m² | - |
| 1777725972 | 10° C | 70% | 1016.9 hPa | 0 mm | - | 85 W/m² | - |
| 1777725669 | 10° C | 71% | 1016.9 hPa | 0 mm | - | 57 W/m² | - |
| 1777725367 | 9.44° C | 71% | 1016.8 hPa | 0 mm | - | 51 W/m² | - |
| 1777725064 | 9.44° C | 71% | 1017 hPa | 0 mm | - | 56 W/m² | - |
* Rain latest hour (hover to see other rain measurements)
** Current wind speed in m/s (hover to see current wind gust speed)